Regional Weather Roundup
Issued by NWS Green Bay, WI

Home | Current Version | Previous Version | Graphics & Text | Print | Product List | Glossary Off
Versions: 1 2 3 4 5 6 7 8 9 10 11 12 13 14 15 16 17 18 19 20 21 22 23 24 25 26 27 28 29 30 31 32 33 34 35 36 37 38 39 40 41 42 43 44 45 46 47 48 49 50

000
ASUS43 KGRB 260211
RWRGRB

NORTH-CENTRAL AND NORTHEAST WISCONSIN REGIONAL WEATHER ROUNDUP
NATIONAL WEATHER SERVICE GREEN BAY WI
900 PM CDT SUN JUN 25 2017

WIZ005-009-010>012-018-019-260300-
NORTH CENTRAL WISCONSIN

CITY           SKY/WX    TMP DP  RH WIND       PRES   REMARKS
IRONWOOD       CLOUDY    50  47  89 W8        30.05S
MANITOWISH WTR MOCLDY    47  47 100 W6        30.05S
ARBOR VITAE    PTCLDY    52  49  91 NW7       30.04F
EAGLE RIVER    CLOUDY    50  49  97 W6        30.03S
LAND O LAKES   CLOUDY    50  48  93 NW6       30.05R
RHINELANDER    PTCLDY    51  48  89 NW7       30.06R
PHILLIPS       MOCLDY    52  46  82 CALM      30.06S
ANTIGO         CLOUDY    52  48  87 NW12      30.05S
TOMAHAWK       NOT AVBL
MERRILL        CLEAR     53  49  86 CALM      30.07S
$$

WIZ013-073-260300-
NORTHEAST WISCONSIN

CITY           SKY/WX    TMP DP  RH WIND       PRES   REMARKS
IRON MOUNTAIN  LGT RAIN  54  50  86 NW3       29.99F
MARINETTE      MOCLDY    57  54  89 NW6       29.99F
OCONTO         MOCLDY    57  53  84 W9        30.00S
$$

WIZ017-030-035>037-045-260300-
CENTRAL WISCONSIN

CITY           SKY/WX    TMP DP  RH WIND       PRES   REMARKS
MEDFORD        PTCLDY    51  48  90 W6        30.08S
WAUSAU         CLEAR     55  47  74 NW7       30.05S
MOSINEE        MOCLDY    54  48  82 NW6       30.07S
MARSHFIELD     CLOUDY    54  46  74 NW8       30.08S
WISC RAPIDS    CLOUDY    57  49  74 NW7       30.09S
STEVENS POINT  CLEAR     53  51  93 W3        30.07S
WAUPACA        CLOUDY    58  55  90 W8        30.06S
SHAWANO        PTCLDY    58  53  84 W5        30.03S
CLINTONVILLE   CLEAR     55  48  76 NW12      30.04S
WAUTOMA        PTCLDY    56  54  93 W6        30.08S
$$

WIZ038-039-048-051-260300-
FOX VALLEY

CITY           SKY/WX    TMP DP  RH WIND       PRES   REMARKS
NWS GREEN BAY  MOCLDY    59  55  87 W7        30.03S
APPLETON       MOCLDY    57  54  88 W9        30.04S
OSHKOSH        MOCLDY    57  53  86 VRB5      30.05S
FOND DU LAC    CLOUDY    59  51  75 W9        30.06S
$$

WIZ022-050-052-260300-
EAST CENTRAL WISCONSIN

CITY           SKY/WX    TMP DP  RH WIND       PRES   REMARKS
EPHRAIM        CLOUDY    56  55  97 CALM      29.97S
WASHINGTON ISL CLOUDY    56  53  91 N7        29.97S
STURGEON BAY     N/A     58  54  86 SW10        N/A
MANITOWOC      MOCLDY    57  52  83 W7        30.03S
SHEBOYGAN      MOCLDY    57  55  93 W8        30.04S
$$

LMZ563-521-522-541>543-260300-
LAKESHORE

STATION/POSITION TIME  TEMP    WIND        PRES    VSBY  WAVE
                       AIR SEA DIR/SP/G                  HT/PER
                 (UTC) (F)     (DEG/KT/KT) (MB)    (MI)  (FT/S)
SHEBOYGAN LKSHOR 0200   58     270/ 11/ 13 1017.1F
KEWAUNEE LKSHORE 0142   58     280/  5/  9 1015.7F
NORTHPORT PIER   0140   57     300/  4/  5 1014.9F
N MID LAKE BUOY  0150   58 57  260/  6/  8 1015.6F         2/ 5
S GREEN BAY BUOY 0200   60     260/ 16/ 21 1015.4
CHAMBERS ISLAND  0130   57     280/  2/  4 1014.9S
MENOMINEE LKSHOR 0148          320/  9/ 10 1014.5F
$$




USA.gov is the U.S. government's official web portal to all federal, state and local government web resources and services.